[[{"header":{"parameterUnit":"m.s-1","parameterCategory":1,"la1":30.2991,"la2":30.254,"lo1":-89.0895,"lo2":-89.0444,"dy":0.0017,"dx":0.0017,"nx":28,"ny":28,"refTime":"2023-07-20T03:00:00:Z","depth":0,"parameterNumber":2,"parameterNumberName":"U-component_of_WINDS"},"data":[0,0,0,0,0,0,0,0,0,0,0,0,0,0,0,0,0,0,0,0,0,0,0,0,0,0,0,0,0,0,0,0,0,0,0,0,0,0,0,0,0,0,0,0,0,0,0,0,0,0,0,0,0,0,0,0,0,0,0.6286,0.6287,0,0.6314,0.6314,0.6315,0.6297,0.6296,0.6295,0.6295,0.6326,0.6327,0.6329,0,0,0,0,0,0,0,0,0,0,0,0,0,0.6219,0.6221,0.6286,0.6287,0.6287,0.6314,0.6314,0.6315,0.6297,0.6296,0.6295,0.6294,0.6325,0.6327,0.6329,0,0,0,0,0,0,0,0,0,0,0,0,0,0.6248,0.6221,0.6286,0.6281,0.6281,0.6314,0.6314,0.6315,0.6297,0.6296,0.6295,0.6294,0.6324,0.6327,0.6329,0.6369,0,0,0.6336,0.6338,0,0,0,0,0,0,0,0,0.6246,0.625,0.6282,0.6282,0.6282,0.6301,0.6302,0.6333,0.6298,0.6291,0.6295,0.6293,0.6319,0.6321,0.6329,0.637,0.6372,0.6337,0.6338,0.6339,0.634,0,0,0,0,0,0,0,0.6244,0.6249,0.6297,0.6282,0.6282,0.6278,0.6281,0.6308,0.6312,0.6292,0.6291,0.6294,0.6318,0.6327,0.633,0.6372,0.6337,0.6339,0.634,0.6341,0.6445,0.6446,0,0,0,0,0,0,0.6243,0.6248,0.6296,0.6298,0.626,0.628,0.6283,0.6296,0.6311,0.6312,0.6295,0.6293,0.6324,0.6327,0.6331,0.6377,0.6339,0.6341,0.6343,0.6444,0.6445,0.6447,0,0,0,0,0,0,0.6241,0.6247,0.6295,0.6272,0.6278,0.6283,0.6297,0.6297,0.6306,0.6314,0.6314,0.6303,0.6323,0.6328,0.6359,0.6378,0.6342,0.6345,0.6442,0.6444,0.6446,0.6471,0,0,0,0,0,0,0.6239,0.6247,0.6262,0.6273,0.628,0.6323,0.6298,0.6299,0.631,0.6307,0.6322,0.6323,0.6322,0.6355,0.6361,0.6381,0.6347,0.6441,0.6443,0.6446,0.6468,0.6473,0.6478,0,0,0,0,0,0.6237,0.6268,0.6263,0.6269,0.6298,0.6324,0.6327,0.6325,0.6311,0.6326,0.6331,0.6322,0.6375,0.6359,0.6365,0.6386,0.6439,0.6442,0.6445,0.6466,0.6472,0.6478,0,0,0,0,0,0,0.6261,0.627,0.6263,0.6299,0.6311,0.6321,0.634,0.6332,0.6349,0.6346,0.6343,0.6347,0.6379,0.6386,0.6367,0.6424,0.6405,0.6409,0.6419,0.6425,0.6429,0.6427,0.6349,0,0,0,0,0,0.627,0.6289,0.6296,0.6327,0.6333,0.6335,0.6347,0.6344,0.6356,0.6361,0.6368,0.638,0.64,0.6413,0.6431,0.6469,0.6471,0.6486,0.6491,0.6495,0.6499,0.6518,0.6524,0.6457,0.6457,0.6457,0,0,0.629,0.6297,0.631,0.6332,0.6341,0.6361,0.634,0.6362,0.6377,0.6364,0.6394,0.6399,0.6413,0.6448,0.6463,0.6454,0.6518,0.6498,0.6501,0.6503,0.6522,0.6528,0.6534,0.6459,0.6458,0.6458,0,0,0.6335,0.6343,0.6369,0.6377,0.639,0.6391,0.6397,0.6408,0.641,0.644,0.643,0.6448,0.6481,0.6491,0.6501,0.6548,0.654,0.6554,0.6579,0.6598,0.6603,0.6608,0.6624,0.663,0.6558,0.6558,0.6558,0,0.6359,0.6388,0.6384,0.6406,0.6416,0.6404,0.643,0.6439,0.6457,0.6464,0.6453,0.6494,0.6502,0.6538,0.655,0.6558,0.6565,0.6553,0.6603,0.6607,0.6612,0.6627,0.6633,0.656,0.6559,0.6559,0.6559,0,0.6415,0.6436,0.6455,0.6471,0.6483,0.6508,0.6507,0.652,0.6516,0.6518,0.6547,0.6557,0.6576,0.6584,0.6581,0.662,0.6613,0.6603,0.6584,0.662,0.6634,0.664,0.6562,0.6561,0.6561,0.656,0,0,0.6478,0.649,0.6497,0.6504,0.6516,0.6531,0.6555,0.6572,0.6583,0.6596,0.6615,0.6643,0.6632,0.6643,0.6641,0.6657,0.6693,0.6644,0.6645,0.6653,0.6735,0.6743,0.675,0.6688,0.6689,0.669,0.6734,0,0.6524,0.6564,0.656,0.6598,0.6616,0.6604,0.6624,0.6634,0.6636,0.6652,0.6655,0.6674,0.6659,0.6665,0.6681,0.6685,0.671,0.6682,0.6706,0.6707,0.6703,0.6758,0.6766,0.6807,0.6739,0.674,0.6741,0,0.6583,0.6596,0.6635,0.6643,0.665,0.6669,0.6684,0.6699,0.671,0.671,0.6721,0.6715,0.6739,0.6718,0.6751,0.6732,0.6742,0.6745,0.6746,0.6749,0.6726,0.6761,0.682,0.6826,0.675,0.6749,0.6749,0,0.6624,0.6651,0.6678,0.6684,0.6694,0.6707,0.6711,0.672,0.6731,0.6744,0.675,0.6767,0.6776,0.6789,0.6788,0.6773,0.682,0.68,0.6821,0.6821,0.6832,0.6831,0.6893,0.6838,0.6838,0.6838,0.6838,0,0.6676,0.67,0.6696,0.6713,0.6739,0.6734,0.6761,0.6765,0.6772,0.6789,0.678,0.6796,0.6794,0.681,0.681,0.6836,0.684,0.6841,0.6841,0.6842,0.6842,0.6848,0.6845,0.684,0.6839,0.6839,0.6839,0,0.6726,0.6724,0.6752,0.6758,0.6761,0.678,0.6785,0.6801,0.6802,0.6823,0.6828,0.683,0.6848,0.6848,0.687,0.6869,0.6901,0.6898,0.6897,0.6896,0.6917,0.6915,0.6986,0.6994,0.6934,0.6935,0.6935,0,0.6759,0.6777,0.6784,0.6794,0.68,0.6816,0.6826,0.6822,0.6832,0.6844,0.6858,0.6876,0.6889,0.692,0.6923,0.6939,0.6936,0.6959,0.6939,0.6939,0.6936,0.6935,0.6936,0.6964,0.6964,0.6965,0.6965,0,0.6817,0.6815,0.6829,0.6842,0.6854,0.6865,0.6874,0.6883,0.688,0.6892,0.691,0.6921,0.6942,0.6959,0.6974,0.698,0.6972,0.6972,0.6977,0.6979,0.6978,0.6978,0.6908,0.697,0.697,0.697,0.6969,0.6969,0.686,0.6874,0.6881,0.6897,0.6903,0.6912,0.6927,0.6928,0.6943,0.6959,0.6955,0.6975,0.6984,0.7004,0.701,0.7026,0.7018,0.7027,0.7029,0.7031,0.7033,0.6975,0.7029,0.7029,0.7029,0.7029,0.7029,0,0.6917,0.692,0.6934,0.6947,0.6959,0.6949,0.6959,0.697,0.6988,0.6996,0.7009,0.7029,0.7046,0.705,0.7065,0.7077,0.7074,0.7082,0.7081,0.7082,0.7039,0.7033,0.7084,0.7084,0.7084,0.7084,0.7084,0.7084,0.6948,0.6972,0.6971,0.6998,0.7001,0.702,0.7026,0.7034,0.7041,0.7063,0.7076,0.7078,0.7085,0.71,0.7115,0.7116,0.7122,0.7131,0.713,0.7091,0.7085,0.708,0.7073,0.7132,0.7132,0.7171,0.7172,0.7172]},{"header":{"parameterUnit":"m.s-1","parameterCategory":1,"la1":30.2991,"la2":30.254,"lo1":-89.0895,"lo2":-89.0444,"dy":0.0017,"dx":0.0017,"nx":28,"ny":28,"refTime":"2023-07-20T03:00:00:Z","depth":0,"parameterNumber":3,"parameterNumberName":"V-component_of_WINDS"},"data":[0,0,0,0,0,0,0,0,0,0,0,0,0,0,0,0,0,0,0,0,0,0,0,0,0,0,0,0,0,0,0,0,0,0,0,0,0,0,0,0,0,0,0,0,0,0,0,0,0,0,0,0,0,0,0,0,0,0,4.0074,4.0075,0,4.0121,4.0122,4.0122,4.0073,4.0072,4.007,4.0068,4.0112,4.0114,4.0117,0,0,0,0,0,0,0,0,0,0,0,0,0,3.9938,3.9941,4.0074,4.0075,4.0075,4.0121,4.0122,4.0122,4.0074,4.0071,4.0069,4.0067,4.0111,4.0114,4.0118,0,0,0,0,0,0,0,0,0,0,0,0,0,3.9992,3.9941,4.0074,4.0057,4.0056,4.0121,4.0122,4.0123,4.0074,4.0071,4.0069,4.0066,4.0109,4.0114,4.0118,4.0201,0,0,4.0131,4.0133,0,0,0,0,0,0,0,0,3.9989,3.9997,4.0059,4.0058,4.0057,4.0089,4.009,4.0149,4.0075,4.0067,4.0068,4.0065,4.0106,4.011,4.0125,4.0204,4.0205,4.0132,4.0134,4.0136,4.0138,0,0,0,0,0,0,0,3.9985,3.9995,4.0093,4.006,4.0059,4.0045,4.005,4.0101,4.0102,4.0067,4.0064,4.0071,4.0105,4.0121,4.0126,4.0206,4.0132,4.0136,4.0138,4.014,4.0354,4.0357,0,0,0,0,0,0,3.9984,3.9992,4.0091,4.0094,4.0016,4.005,4.0055,4.0081,4.0101,4.0101,4.0073,4.0068,4.0115,4.0121,4.0127,4.0226,4.0136,4.014,4.0143,4.0351,4.0355,4.0358,0,0,0,0,0,0,3.9981,3.9993,4.0089,4.0042,4.0053,4.0055,4.0085,4.0084,4.01,4.0105,4.0105,4.009,4.0113,4.0121,4.0184,4.0227,4.0142,4.0146,4.0348,4.0352,4.0357,4.0424,0,0,0,0,0,0,3.9978,3.9993,4.0026,4.0043,4.0056,4.0146,4.0088,4.0087,4.0108,4.0102,4.0121,4.0121,4.0111,4.0177,4.0188,4.0231,4.015,4.0344,4.035,4.0355,4.0418,4.043,4.0441,0,0,0,0,0,3.9973,4.0042,4.0028,4.004,4.0097,4.0149,4.0156,4.0145,4.0112,4.0144,4.0147,4.012,4.022,4.0184,4.0196,4.0241,4.0341,4.0348,4.0355,4.0413,4.0428,4.0441,0,0,0,0,0,0,4.0027,4.0044,4.0028,4.0105,4.0126,4.0141,4.0181,4.0161,4.0191,4.0184,4.0168,4.0172,4.0239,4.0246,4.0205,4.0322,4.0275,4.0285,4.0315,4.033,4.0341,4.0337,4.0153,0,0,0,0,0,4.0049,4.0091,4.0102,4.0169,4.018,4.0179,4.0201,4.0191,4.0211,4.022,4.0227,4.0247,4.0283,4.0307,4.034,4.0419,4.0421,4.0455,4.0467,4.0476,4.0485,4.0526,4.0541,4.0381,4.0381,4.0381,0,0,4.0092,4.0106,4.0134,4.018,4.0195,4.0238,4.0187,4.0234,4.0265,4.0226,4.0286,4.0292,4.0313,4.0384,4.0416,4.0392,4.053,4.0485,4.0493,4.0496,4.0535,4.055,4.0563,4.0386,4.0385,4.0384,0,0,4.0193,4.0209,4.0266,4.0283,4.0307,4.0306,4.0319,4.0337,4.034,4.04,4.0372,4.0408,4.047,4.0486,4.0502,4.061,4.0586,4.0621,4.0681,4.0722,4.0735,4.0746,4.0783,4.0797,4.063,4.063,4.063,0,4.0244,4.0309,4.0297,4.0347,4.0367,4.0337,4.0393,4.0409,4.0443,4.0457,4.043,4.0508,4.052,4.0594,4.062,4.0635,4.0649,4.0619,4.0734,4.0745,4.0755,4.0791,4.0805,4.0634,4.0633,4.0633,4.0633,0,4.0369,4.0414,4.0457,4.0492,4.0517,4.057,4.0566,4.0593,4.058,4.0582,4.0642,4.0656,4.0691,4.0708,4.0696,4.078,4.0765,4.0737,4.0689,4.0775,4.0808,4.0821,4.064,4.0638,4.0637,4.0636,0,0,4.0505,4.0534,4.055,4.0565,4.0589,4.0623,4.0674,4.071,4.0733,4.0757,4.0798,4.0852,4.0826,4.0845,4.0834,4.087,4.0954,4.0837,4.0837,4.0858,4.1046,4.1067,4.1083,4.0938,4.0941,4.0943,4.1044,0,4.0606,4.0697,4.0688,4.0773,4.0814,4.0785,4.0829,4.0848,4.0851,4.0885,4.0886,4.0925,4.0888,4.0899,4.0933,4.0936,4.0991,4.0929,4.0975,4.0977,4.097,4.1101,4.1123,4.1218,4.1057,4.106,4.1061,0,4.0736,4.0767,4.0856,4.0875,4.0891,4.0932,4.0964,4.0997,4.1017,4.1017,4.1038,4.1021,4.1071,4.1023,4.109,4.1048,4.1067,4.1071,4.1074,4.1078,4.1024,4.1107,4.1248,4.1262,4.1082,4.108,4.1079,0,4.0826,4.0889,4.095,4.0964,4.0987,4.1016,4.1027,4.1045,4.1067,4.1095,4.1109,4.1141,4.1159,4.1184,4.1176,4.1142,4.1245,4.1197,4.1245,4.1245,4.1267,4.1266,4.1413,4.128,4.128,4.128,4.128,0,4.0939,4.0995,4.0991,4.1029,4.109,4.1079,4.1139,4.1146,4.1162,4.12,4.1177,4.1212,4.12,4.1234,4.1228,4.1285,4.1293,4.1293,4.129,4.1294,4.1294,4.1305,4.1298,4.1284,4.1283,4.1282,4.1282,0,4.1049,4.1049,4.1114,4.1131,4.1136,4.1181,4.1194,4.1229,4.123,4.1278,4.1289,4.129,4.1329,4.1324,4.1367,4.1363,4.1433,4.1423,4.1427,4.1424,4.1472,4.1468,4.1631,4.1652,4.1507,4.1508,4.151,0,4.1121,4.1163,4.1185,4.121,4.1223,4.1262,4.1285,4.1276,4.13,4.1327,4.1359,4.1396,4.1426,4.149,4.1493,4.1526,4.1516,4.1571,4.1521,4.1524,4.1516,4.1513,4.1517,4.1581,4.1582,4.1584,4.1585,0,4.1248,4.1246,4.1281,4.1316,4.1345,4.1371,4.1395,4.1416,4.1409,4.1437,4.1478,4.1501,4.1546,4.1583,4.1615,4.1624,4.1603,4.1601,4.1614,4.1618,4.1618,4.1618,4.1453,4.1597,4.1596,4.1595,4.1594,4.1594,4.1341,4.1377,4.1399,4.1438,4.1455,4.1479,4.1512,4.1518,4.1553,4.1589,4.1582,4.1627,4.1646,4.1686,4.1699,4.1734,4.1713,4.1732,4.1736,4.1741,4.1746,4.1614,4.1739,4.1739,4.1738,4.1738,4.1738,0,4.1466,4.1479,4.1516,4.1551,4.1582,4.1561,4.1587,4.1614,4.1655,4.1675,4.1705,4.1751,4.1787,4.1795,4.1828,4.1855,4.1846,4.1864,4.1861,4.1864,4.1763,4.1748,4.187,4.187,4.187,4.187,4.187,4.187,4.1535,4.1596,4.1596,4.1664,4.1676,4.1722,4.1738,4.1759,4.1775,4.1829,4.1859,4.1864,4.1879,4.1914,4.1946,4.1947,4.196,4.1981,4.1979,4.1884,4.1871,4.1858,4.1844,4.1985,4.1985,4.2076,4.2077,4.2078]}]]